Change the Weather History Date:

Wednesday, June 4, 2014

  Actual Average Record
Temperature  
Mean Temperature 62 °F -  
Max Temperature 79 °F 70 °F 91 °F (1934)
Min Temperature 46 °F 45 °F 27 °F (1945)
Degree Days  
Heating Degree Days 2    
Growing Degree Days 12 (Base 50)    
Moisture  
Dew Point 44 °F    
Average Humidity 52    
Maximum Humidity 83    
Minimum Humidity 23    
Precipitation  
Precipitation 0.00 in - - ()
Sea Level Pressure  
Sea Level Pressure 29.92 in    
Wind  
Wind Speed 2 mph (NE)    
Max Wind Speed 10 mph    
Max Gust Speed -    
Visibility 10 miles    
Events      
Averages and records for this station are not official NWS values.
T = Trace of Precipitation, MM = Missing Value Source: NWS Daily Summary

Daily Weather History Graph

Daily Weather History Graph

Search for Another Location

Airport or City:

Trip Planner

Search our weather history database for the weather conditions in past years. The results will help you decide how hot, cold, wet, or windy it might be!

Date:

Astronomy

Jun. 04, 2014 Rise Set
Actual Time 5:10 AM CDT 8:44 PM CDT
Civil Twilight 4:32 AM CDT 9:22 PM CDT
Nautical Twilight 3:42 AM CDT 10:12 PM CDT
Astronomical Twilight 2:36 AM CDT 11:19 PM CDT
Moon 11:44 AM CDT (6/4) 12:29 AM CDT (6/4)
Length of Visible Light 16h 49m
Length of Day
15h 34m
Waxing Crescent, 39% of the Moon is Illuminated
Jun 4
Waxing Crescent
Jun 5
First Quarter
Jun 12
Full
Jun 19
Last Quarter
Jun 27
New

Hourly Weather History & Observations

Time (CDT) Temp. Dew Point Humidity Pressure Visibility Wind Dir Wind Speed Gust Speed Precip Events Conditions
12:15 AM 51.8 °F 42.4 °F 70% 29.91 in 10.0 mi Calm Calm - N/A   Scattered Clouds
12:35 AM 51.8 °F 43.7 °F 74% 29.91 in 10.0 mi Calm Calm - N/A   Mostly Cloudy
12:55 AM 51.8 °F 43.3 °F 73% 29.91 in 10.0 mi Calm Calm - N/A   Scattered Clouds
1:15 AM 51.8 °F 44.2 °F 75% 29.91 in 10.0 mi Calm Calm - N/A   Mostly Cloudy
1:35 AM 51.8 °F 45.5 °F 79% 29.91 in 10.0 mi Calm Calm - N/A   Scattered Clouds
1:55 AM 51.8 °F 45.0 °F 77% 29.91 in 10.0 mi Calm Calm - N/A   Mostly Cloudy
2:15 AM 51.8 °F 45.1 °F 78% 29.90 in 10.0 mi Calm Calm - N/A   Scattered Clouds
2:35 AM 51.8 °F 45.5 °F 79% 29.90 in 7.0 mi Calm Calm - N/A   Clear
2:55 AM 50.4 °F 44.6 °F 81% 29.91 in 10.0 mi Calm Calm - N/A   Clear
3:15 AM 49.3 °F 43.3 °F 80% 29.91 in 10.0 mi Calm Calm - N/A   Clear
3:35 AM 49.3 °F 43.5 °F 81% 29.91 in 10.0 mi Calm Calm - N/A   Clear
3:55 AM 49.3 °F 43.7 °F 81% 29.91 in 10.0 mi Calm Calm - N/A   Clear
4:15 AM 49.3 °F 42.8 °F 78% 29.91 in 10.0 mi Calm Calm - N/A   Clear
4:35 AM 49.1 °F 42.8 °F 79% 29.91 in 10.0 mi Calm Calm - N/A   Clear
4:55 AM 49.3 °F 43.0 °F 79% 29.91 in 10.0 mi Calm Calm - N/A   Clear
5:15 AM 46.8 °F 40.5 °F 79% 29.91 in 10.0 mi Calm Calm - N/A   Clear
5:35 AM 49.3 °F 42.8 °F 78% 29.91 in 10.0 mi Calm Calm - N/A   Clear
5:55 AM 51.8 °F 45.9 °F 80% 29.91 in 10.0 mi Calm Calm - N/A   Clear
6:15 AM 51.8 °F 46.2 °F 81% 29.91 in 10.0 mi Calm Calm - N/A   Clear
6:35 AM 56.8 °F 50.9 °F 80% 29.91 in 10.0 mi Calm Calm - N/A   Clear
6:55 AM 59.4 °F 53.1 °F 80% 29.92 in 10.0 mi Calm Calm - N/A   Clear
7:15 AM 61.9 °F 55.9 °F 81% 29.91 in 10.0 mi ESE 4.6 mph - N/A   Clear
7:35 AM 61.9 °F 55.2 °F 79% 29.91 in 10.0 mi ESE 3.5 mph - N/A   Clear
7:55 AM 63.1 °F 57.7 °F 83% 29.91 in 10.0 mi Calm Calm - N/A   Clear
8:15 AM 65.3 °F 59.4 °F 81% 29.92 in 10.0 mi East 3.5 mph - N/A   Clear
8:35 AM 67.1 °F 56.7 °F 69% 29.92 in 10.0 mi Calm Calm - N/A   Clear
8:55 AM 69.1 °F 51.3 °F 53% 29.93 in 10.0 mi ENE 3.5 mph - N/A   Clear
9:15 AM 69.4 °F 50.0 °F 50% 29.93 in 10.0 mi East 6.9 mph - N/A   Clear
9:35 AM 72.0 °F 50.7 °F 47% 29.93 in 10.0 mi NE 5.8 mph - N/A   Clear
9:55 AM 72.0 °F 50.0 °F 46% 29.92 in 10.0 mi East 4.6 mph - N/A   Clear
10:15 AM 72.0 °F 50.2 °F 46% 29.92 in 10.0 mi NNE 5.8 mph - N/A   Scattered Clouds
10:35 AM 72.0 °F 46.6 °F 40% 29.93 in 10.0 mi NE 4.6 mph - N/A   Scattered Clouds
10:55 AM 74.3 °F 49.8 °F 42% 29.93 in 10.0 mi SE 4.6 mph - N/A   Scattered Clouds
11:15 AM 75.9 °F 51.3 °F 42% 29.93 in 10.0 mi Calm Calm - N/A   Scattered Clouds
11:35 AM 77.0 °F 46.6 °F 34% 29.94 in 10.0 mi East 4.6 mph - N/A   Clear
11:55 AM 77.0 °F 47.7 °F 35% 29.94 in 10.0 mi East 4.6 mph - N/A   Scattered Clouds
12:15 PM 77.0 °F 46.6 °F 34% 29.93 in 10.0 mi Calm Calm - N/A   Scattered Clouds
12:35 PM 77.0 °F 45.7 °F 33% 29.93 in 10.0 mi SE 3.5 mph - N/A   Scattered Clouds
12:55 PM 75.2 °F 49.6 °F 41% 29.93 in 10.0 mi Calm Calm - N/A   Scattered Clouds
1:15 PM 77.0 °F 44.2 °F 31% 29.93 in 10.0 mi East 6.9 mph - N/A   Mostly Cloudy
1:35 PM 77.0 °F 46.6 °F 34% 29.93 in 10.0 mi NW 3.5 mph - N/A   Mostly Cloudy
1:55 PM 77.0 °F 47.3 °F 35% 29.93 in 10.0 mi NE 5.8 mph - N/A   Mostly Cloudy
2:15 PM 74.3 °F 46.8 °F 37% 29.92 in 10.0 mi SE 4.6 mph - N/A   Scattered Clouds
2:35 PM 77.0 °F 43.5 °F 30% 29.92 in 10.0 mi Calm Calm - N/A   Mostly Cloudy
2:55 PM 77.0 °F 40.6 °F 27% 29.92 in 10.0 mi Calm Calm - N/A   Scattered Clouds
3:15 PM 73.2 °F 38.1 °F 28% 29.92 in 10.0 mi North 3.5 mph - N/A   Scattered Clouds
3:35 PM 77.0 °F 44.4 °F 31% 29.92 in 10.0 mi Calm Calm - N/A   Scattered Clouds
3:55 PM 79.7 °F 41.4 °F 26% 29.92 in 10.0 mi NNE 5.8 mph - N/A   Mostly Cloudy
4:15 PM 79.7 °F 42.4 °F 27% 29.92 in 10.0 mi NNW 10.4 mph - N/A   Scattered Clouds
4:35 PM 78.3 °F 40.1 °F 25% 29.92 in 10.0 mi NNW 5.8 mph - N/A   Clear
4:55 PM 73.0 °F 37.4 °F 27% 29.92 in 10.0 mi NNE 5.8 mph - N/A   Clear
5:15 PM 76.1 °F 40.5 °F 28% 29.92 in 10.0 mi North 5.8 mph - N/A   Clear
5:35 PM 77.0 °F 39.4 °F 26% 29.92 in 10.0 mi NNE 5.8 mph - N/A   Clear
5:55 PM 77.0 °F 36.9 °F 23% 29.92 in 10.0 mi NNE 3.5 mph - N/A   Clear
6:15 PM 77.0 °F 42.3 °F 29% 29.92 in 10.0 mi NNE 6.9 mph - N/A   Clear
6:35 PM 77.0 °F 43.7 °F 31% 29.92 in 10.0 mi NNE 8.1 mph - N/A   Clear
6:55 PM 76.6 °F 44.8 °F 32% 29.92 in 10.0 mi NNE 8.1 mph - N/A   Clear
7:15 PM 72.7 °F 41.9 °F 33% 29.93 in 10.0 mi NNE 6.9 mph - N/A   Clear
7:35 PM 72.0 °F 41.9 °F 34% 29.93 in 10.0 mi NE 9.2 mph - N/A   Clear
7:55 PM 72.0 °F 42.4 °F 34% 29.93 in 10.0 mi NNE 8.1 mph - N/A   Clear
8:15 PM 69.6 °F 39.6 °F 33% 29.94 in 10.0 mi NE 5.8 mph - N/A   Clear
8:35 PM 67.1 °F 37.6 °F 34% 29.94 in 10.0 mi NE 4.6 mph - N/A   Clear
8:55 PM 64.4 °F 37.2 °F 37% 29.94 in 10.0 mi NE 5.8 mph - N/A   Clear
9:15 PM 62.6 °F 36.9 °F 38% 29.95 in 10.0 mi NE 4.6 mph - N/A   Clear
9:35 PM 61.9 °F 37.8 °F 41% 29.95 in 10.0 mi NE 3.5 mph - N/A   Clear
9:55 PM 61.9 °F 38.1 °F 41% 29.95 in 10.0 mi NE 3.5 mph - N/A   Clear
10:15 PM 59.4 °F 36.3 °F 42% 29.95 in 10.0 mi NE 3.5 mph - N/A   Clear
10:35 PM 57.0 °F 35.2 °F 44% 29.95 in 10.0 mi Calm Calm - N/A   Clear
10:55 PM 56.8 °F 37.2 °F 48% 29.96 in 10.0 mi Calm Calm - N/A   Clear
11:15 PM 51.8 °F 33.8 °F 50% 29.96 in 10.0 mi Calm Calm - N/A   Clear
11:35 PM 51.8 °F 34.9 °F 53% 29.96 in 10.0 mi Calm Calm - N/A   Clear
11:55 PM 51.8 °F 36.0 °F 55% 29.97 in 10.0 mi Calm Calm - N/A   Clear